sat.trackr.live / text

‹ back to catalog

STARLINK-36131

NORAD 67032 · 2025-294C

PAYLOAD ACTIVE UNKNOWN

§ Identity

Operator
Country
US
Launch date
2025-12-11
Launch site
AFETR
Launch vehicle
Mass (kg)
RCS (m²)

Purposes: comms

External: N2YO · Heavens-Above · Gunter

§ Orbital elements

Epoch: 2026-09-20T14:44:19.197312Z

Period
94.27 min
Inclination
43.0036°
Eccentricity
0.0000970
Mean motion
15.27590654 rev/d
Perigee alt
482.4 km
Apogee alt
483.7 km
Semi-major
6,861.2 km
B*
3.4387e-4
RAAN
16.9713°
Arg perigee
266.1163°
Mean anomaly
93.9578°
Rev number
4,461

§ Raw data

STARLINK-361311 67032U 25294C   26263.61411108  .00009215  00000+0  34387-3 0  99952 67032  43.0036  16.9713 0000970 266.1163  93.9578 15.27590654 44614

JSON: /api/v1/satellites/67032 · /tle

For live sub-satellite position, see the globe view (requires WebGL).

§ Visibility from observer

Set your observer location to see the next 7 days of passes ≥ 10°. The values pass through the URL so the page stays shareable.

No JS? Fill the form by hand. The geolocation button needs JavaScript.